User: anonymous   Login
Location: Unspecified
(0.0000°N, 0.0000°E)
Time: 01:07:17
(UTC+00:00)
Language:

FORMOSAT 3A - Orbit

View from above orbital plane
View from above orbital plane
View from above satellite
View from above satellite

Ground track
Ground track

The orbit data is extracted from the following two-line orbital elements,

1 29047U 06011A   21023.39209679  .00000171  00000-0  83368-4 0  9994
2 29047  71.9788  21.0708 0048729  40.4199 320.0541 14.28779133772724
Epoch (UTC): 23 January 2021 09:24:37
Eccentricity: 0.0048729
inclination: 71.9788°
perigee height: 761 km
apogee height: 831 km
right ascension of ascending node: 21.0708°
argument of perigee: 40.4199°
revolutions per day: 14.28779133
mean anomaly at epoch: 320.0541°
orbit number at epoch: 77272

The dashed part of the orbit path shows where the satellite is in the earth's shadow,  

DLR